Location: Bay Harbour
(38.2612°N, 75.2555°W)
Time: 01:30:52
(UTC+00:00)

ATLAS 2AS CENTAUR R/B - Pass Details

Date: 29 October 2020
Orbit: 939 x 1273 km, 63.7° (Epoch: 23 November)

Event Time Altitude Azimuth Distance (km) Brightness Sun altitude
Rises 23:38:18 0° 332° (NNW) 4,141 6.1 -19.0°
Reaches altitude 10° 23:41:41 10° 344° (NNW) 3,125 5.3 -19.6°
Maximum altitude 23:47:51 27° 40° (NE) 2,025 3.8 -20.8°
Enters shadow 23:48:39 27° 50° (NE) 2,035 3.7 -21.0°
